AL3A Weather Reports


time (UTC)temp
C
wind
direction
speed
KPH
gust
KPH
rain 1hr
cm
rain 24hr
cm
rain mn
cm
humidity
%
barometer
mb
20260507074017 -1 0.0 0.0 0.00 0.00 0.00 68 1024.7
20260507073017 -1 0.0 1.6 0.00 0.00 0.00 67 1024.7
20260507072017 -1 0.0 0.0 0.00 0.00 0.00 66 1025.1
20260507071017 0 0.0 0.0 0.00 0.00 0.00 66 1025.0
20260507070037 0 0.0 0.0 0.00 0.00 0.00 64 1025.5
20260507065016 1 0.0 1.6 0.00 0.00 0.00 62 1025.5
20260507064015 1 0.0 0.0 0.00 0.00 0.00 62 1025.5
20260507063015 0 0.0 3.2 0.00 0.00 0.00 65 1025.4
20260507062015 0 0.0 1.6 0.00 0.00 0.00 65 1024.6
20260507061016 0 0.0 0.0 0.00 0.00 0.00 65 1024.5
20260507060016 1 0.0 0.0 0.00 0.00 0.00 65 1024.3
20260507055015 1 0.0 0.0 0.00 0.00 0.00 64 1023.5
20260507054015 1 0.0 0.0 0.00 0.00 0.00 62 1024.0
20260507053016 2 0.0 0.0 0.00 0.00 0.00 63 1023.9
20260507052016 2 0.0 1.6 0.00 0.00 0.00 62 1023.3
20260507051016 2 0.0 3.2 0.00 0.00 0.00 62 1023.9
20260507050015 2 0.0 0.0 0.00 0.00 0.00 60 1023.9
20260507045016 3 0.0 0.0 0.00 0.00 0.00 59 1023.7
20260507044015 4 0.0 0.0 0.00 0.00 0.00 57 1024.3
20260507043016 5 0.0 0.0 0.00 0.00 0.00 55 1024.3
20260507042036 5 0.0 3.2 0.00 0.00 0.00 54 1023.8
20260507041016 5 0.0 0.0 0.00 0.00 0.00 54 1024.3
20260507040016 6 0.0 1.6 0.00 0.00 0.00 52 1024.2
20260507035055 7 0.0 0.0 0.00 0.00 0.00 49 1024.0
20260507034015 8 0.0 0.0 0.00 0.00 0.00 48 1024.4
20260507033015 8 0.0 0.0 0.00 0.00 0.00 45 1024.8
20260507032015 9 0.0 0.0 0.00 0.00 0.00 44 1024.3
20260507031035 10 0.0 1.6 0.00 0.00 0.00 42 1024.7
20260507030017 10 0.0 1.6 0.00 0.00 0.00 42 1024.6
20260507025057 10 0.0 3.2 0.00 0.00 0.00 41 1024.0
20260507024017 11 0.0 1.6 0.00 0.00 0.00 40 1024.4
20260507023017 12 0.0 1.6 0.00 0.00 0.00 38 1024.6
20260507022017 13 0.0 1.6 0.00 0.00 0.00 36 1024.1
20260507021017 14 0.0 1.6 0.00 0.00 0.00 34 1024.5
20260507020017 15 0.0 1.6 0.00 0.00 0.00 34 1024.5
20260507015037 16 270 6.4 20.9 0.00 0.00 0.00 29 1024.4
20260507014017 16 225 1.6 16.1 0.00 0.00 0.00 30 1024.4
20260507013017 16 0.0 3.2 0.00 0.00 0.00 30 1024.5
20260507012017 16 293 3.2 12.9 0.00 0.00 0.00 31 1024.0
20260507011037 15 23 1.6 4.8 0.00 0.00 0.00 31 1024.0
20260507010017 15 293 4.8 14.5 0.00 0.00 0.00 31 1024.1
20260507005017 16 315 6.4 20.9 0.00 0.00 0.00 30 1023.4
20260507004017 16 23 3.2 14.5 0.00 0.00 0.00 29 1023.5
20260507003017 16 315 8.0 22.5 0.00 0.00 0.00 30 1023.6
20260507002037 17 293 1.6 6.4 0.00 0.00 0.00 30 1023.5
20260507001037 16 315 1.6 6.4 0.00 0.00 0.00 31 1023.0
20260507000017 16 293 3.2 11.3 0.00 0.05 0.00 29 1023.0
20260506235017 16 315 8.0 24.1 0.00 0.05 0.00 29 1023.7
20260506234017 16 23 1.6 8.0 0.00 0.05 0.00 29 1023.6
20260506233017 16 0 1.6 8.0 0.00 0.05 0.00 28 1023.7
20260506232017 16 248 3.2 11.3 0.00 0.05 0.00 28 1023.6
20260506231017 16 315 3.2 9.7 0.00 0.05 0.00 29 1024.3
20260506230057 17 270 3.2 17.7 0.00 0.13 0.00 28 1024.3
20260506225037 17 270 11.3 32.2 0.00 0.13 0.00 27 1024.8
20260506224017 17 270 11.3 29.0 0.00 0.13 0.00 26 1024.9
20260506223017 17 270 11.3 24.1 0.00 0.13 0.00 27 1024.8
20260506222017 16 293 11.3 27.4 0.00 0.13 0.00 28 1024.6
20260506221016 17 293 14.5 25.7 0.00 0.13 0.00 29 1025.2
20260506220037 16 293 6.4 25.7 0.00 0.13 0.00 28 1024.9
20260506215016 16 293 8.0 22.5 0.00 0.13 0.00 30 1024.6
20260506214036 16 270 14.5 22.5 0.00 0.13 0.00 29 1024.8
20260506213016 16 270 8.0 24.1 0.00 0.13 0.00 30 1025.3
20260506212016 15 293 16.1 35.4 0.00 0.13 0.00 32 1024.9
20260506211016 15 293 12.9 35.4 0.00 0.13 0.00 34 1025.0
20260506210036 15 293 9.7 20.9 0.00 0.13 0.00 35 1025.3
20260506205057 15 293 8.0 25.7 0.00 0.13 0.00 37 1025.1
20260506204016 15 293 6.4 20.9 0.00 0.13 0.00 32 1025.0
20260506203016 15 293 3.2 12.9 0.00 0.13 0.00 35 1024.9
20260506202017 15 270 3.2 6.4 0.00 0.13 0.00 33 1024.8
20260506201016 15 248 6.4 30.6 0.00 0.13 0.00 34 1025.1
20260506200016 15 293 12.9 30.6 0.00 0.13 0.00 34 1024.5
20260506195036 15 248 12.9 30.6 0.00 0.13 0.00 34 1024.6
20260506194016 14 293 1.6 8.0 0.00 0.13 0.00 31 1024.1
20260506193017 13 293 6.4 24.1 0.00 0.13 0.00 34 1024.0
20260506192016 13 270 1.6 9.7 0.00 0.13 0.00 35 1024.0
20260506191036 13 270 6.4 27.4 0.00 0.13 0.00 36 1024.1
20260506190137 14 270 12.9 33.8 0.00 0.13 0.00 35 1024.6
20260506185016 14 270 4.8 25.7 0.00 0.13 0.00 36 1024.7
20260506184016 13 248 9.7 20.9 0.00 0.13 0.00 38 1024.0
20260506183016 13 293 8.0 22.5 0.00 0.13 0.00 40 1024.2
20260506182016 12 315 1.6 6.4 0.00 0.13 0.00 42 1024.1
20260506181016 13 270 4.8 17.7 0.00 0.13 0.00 42 1024.7
20260506180016 12 270 3.2 9.7 0.00 0.13 0.00 44 1024.3
20260506175016 12 293 1.6 6.4 0.00 0.13 0.00 44 1024.4
20260506174016 12 270 1.6 8.0 0.00 0.13 0.00 44 1024.4
20260506173016 11 293 3.2 14.5 0.00 0.13 0.00 45 1023.9
20260506172016 11 293 3.2 14.5 0.00 0.13 0.00 46 1024.6
20260506171016 11 248 3.2 9.7 0.00 0.13 0.00 46 1024.4
20260506170016 10 293 3.2 9.7 0.00 0.13 0.00 47 1023.9
20260506165016 10 293 3.2 6.4 0.00 0.13 0.00 47 1024.4
20260506164016 10 270 1.6 4.8 0.00 0.13 0.00 47 1024.3
20260506163016 10 270 1.6 9.7 0.00 0.13 0.00 50 1023.7
20260506162036 9 293 3.2 9.7 0.00 0.13 0.00 50 1023.6
20260506161016 9 270 3.2 9.7 0.00 0.13 0.00 51 1023.7
20260506160017 8 270 3.2 9.7 0.00 0.13 0.00 52 1023.6
20260506155016 8 270 1.6 6.4 0.00 0.13 0.00 54 1023.1
20260506154016 8 270 1.6 11.3 0.00 0.13 0.00 58 1023.1
20260506153016 7 293 1.6 4.8 0.00 0.13 0.00 57 1023.2
20260506152016 7 270 3.2 12.9 0.00 0.13 0.00 61 1022.7
20260506151016 7 293 3.2 12.9 0.00 0.13 0.00 59 1022.6
20260506150016 6 270 3.2 11.3 0.00 0.13 0.00 60 1022.4
20260506145016 6 248 3.2 9.7 0.00 0.13 0.00 61 1021.9
20260506144016 6 225 3.2 8.0 0.00 0.13 0.00 63 1021.8
20260506143016 5 225 1.6 8.0 0.00 0.13 0.00 65 1022.0
20260506142016 5 248 3.2 8.0 0.00 0.13 0.00 65 1021.9
20260506141016 4 225 3.2 8.0 0.00 0.13 0.00 67 1021.3
20260506140036 3 225 1.6 3.2 0.00 0.13 0.00 73 1020.7
20260506135016 2 0.0 1.6 0.00 0.13 0.00 75 1020.6
20260506134016 2 0.0 6.4 0.00 0.13 0.00 76 1020.0
20260506133015 1 248 1.6 4.8 0.00 0.13 0.00 74 1019.8
20260506132016 1 225 3.2 6.4 0.00 0.13 0.00 75 1019.9
20260506131056 1 248 1.6 4.8 0.00 0.13 0.00 76 1019.3
20260506130015 1 248 1.6 8.0 0.00 0.13 0.00 76 1019.2
20260506125015 1 225 1.6 4.8 0.00 0.13 0.00 78 1019.1
20260506124015 0 225 3.2 6.4 0.00 0.13 0.00 79 1019.1
20260506123015 0 225 1.6 6.4 0.00 0.13 0.00 82 1018.4
20260506122015 -1 225 1.6 4.8 0.00 0.13 0.00 86 1017.7
20260506121015 -1 225 1.6 4.8 0.00 0.13 0.00 83 1017.5
20260506120015 -1 0.0 4.8 0.00 0.13 0.00 81 1017.4
20260506115015 0 225 1.6 4.8 0.00 0.13 0.00 79 1018.4
20260506114016 0 203 3.2 6.4 0.00 0.13 0.00 81 1017.9
20260506113016 0 225 1.6 4.8 0.00 0.13 0.00 84 1017.9
20260506112015 0 0.0 1.6 0.00 0.13 0.00 77 1017.2
20260506111016 0 225 1.6 3.2 0.00 0.13 0.00 80 1017.7
20260506110015 0 225 1.6 4.8 0.00 0.13 0.00 81 1017.7
20260506105015 0 225 1.6 6.4 0.00 0.13 0.00 78 1017.6
20260506104036 0 0.0 3.2 0.00 0.13 0.00 79 1017.5
20260506103015 1 225 1.6 4.8 0.00 0.13 0.00 79 1017.3
20260506102017 1 225 1.6 4.8 0.00 0.13 0.00 79 1017.8
20260506101037 1 225 1.6 6.4 0.00 0.13 0.00 79 1017.8
20260506100017 0 248 1.6 9.7 0.00 0.13 0.00 80 1017.8
20260506095017 0 225 1.6 6.4 0.00 0.13 0.00 83 1018.3
20260506094017 -1 248 1.6 4.8 0.00 0.13 0.00 83 1017.6
20260506093017 0 225 3.2 9.7 0.00 0.13 0.00 79 1018.1
20260506092017 0 225 1.6 4.8 0.00 0.13 0.00 80 1018.1
20260506091017 1 248 1.6 4.8 0.00 0.13 0.00 79 1018.1
20260506090017 0 180 1.6 4.8 0.00 0.13 0.00 80 1018.1
20260506085037 0 225 1.6 4.8 0.00 0.13 0.00 81 1019.0
20260506084017 0 225 3.2 8.0 0.00 0.13 0.00 82 1018.4
20260506083017 0 203 1.6 4.8 0.00 0.13 0.00 84 1018.5
20260506082017 0 225 3.2 6.4 0.00 0.13 0.00 85 1019.1
20260506081017 0 0.0 3.2 0.00 0.13 0.00 86 1019.1